| time (UTC) | temp F | wind direction | speed MPH | gust MPH | rain 1hr in | rain 24hr in | rain mn in | humidity % | barometer mb |
| 20260902204536 | 60 | 109 | 1.0 | 10.0 | 0.00 | 0.21 | 0.21 | 68 | 1006.7 |
| 20260902203033 | 60 | 155 | 1.0 | 5.0 | 0.01 | 0.21 | 0.21 | 68 | 1006.6 |
| 20260902201530 | 60 | 186 | 1.0 | 7.0 | 0.03 | 0.21 | 0.21 | 68 | 1006.2 |
| 20260902200027 | 59 | 156 | 0.0 | 7.0 | 0.04 | 0.21 | 0.21 | 71 | 1006.1 |
| 20260902194532 | 59 | 107 | 0.0 | 5.0 | 0.06 | 0.21 | 0.21 | 70 | 1006.3 |
| 20260902193020 | 58 | 82 | 0.0 | 6.0 | 0.07 | 0.20 | 0.20 | 71 | 1006.2 |
| 20260902191517 | 58 | 91 | 0.0 | 3.0 | 0.10 | 0.18 | 0.18 | 71 | 1006.5 |
| 20260902190038 | 58 | 104 | 0.0 | 5.0 | 0.12 | 0.17 | 0.17 | 71 | 1006.5 |
| 20260902184533 | 58 | 104 | 0.0 | 4.0 | 0.10 | 0.15 | 0.15 | 69 | 1006.8 |
| 20260902183031 | 58 | 124 | 0.0 | 3.0 | 0.09 | 0.13 | 0.13 | 69 | 1007.0 |
| 20260902181506 | 58 | 119 | 0.0 | 4.0 | 0.05 | 0.08 | 0.08 | 68 | 1006.8 |
| 20260902180005 | 59 | 119 | 0.0 | 4.0 | 0.03 | 0.05 | 0.05 | 67 | 1007.0 |
| 20260902174526 | 58 | 143 | 0.0 | 2.0 | 0.04 | 0.05 | 0.05 | 68 | 1007.2 |
| 20260902173025 | 58 | 140 | 0.0 | 3.0 | 0.04 | 0.04 | 0.04 | 68 | 1007.3 |
| 20260902171519 | 59 | 77 | 0.0 | 5.0 | 0.03 | 0.03 | 0.03 | 68 | 1007.4 |
| 20260902170014 | 59 | 285 | 0.0 | 1.0 | 0.02 | 0.02 | 0.02 | 67 | 1007.4 |
| 20260902164513 | 61 | 159 | 0.0 | 1.0 | 0.01 | 0.01 | 0.01 | 67 | 1007.2 |
| 20260902163010 | 61 | 159 | 0.0 | 0.0 | 0.00 | 0.00 | 0.00 | 66 | 1007.1 |
| 20260902161511 | 61 | 120 | 0.0 | 0.0 | 0.00 | 0.00 | 0.00 | 66 | 1006.8 |
| 20260902160034 | 61 | 120 | 0.0 | 0.0 | 0.00 | 0.00 | 0.00 | 65 | 1006.9 |
| 20260902154530 | 61 | 119 | 0.0 | 0.0 | 0.00 | 0.00 | 0.00 | 64 | 1007.0 |
| 20260902153035 | 61 | 119 | 0.0 | 1.0 | 0.00 | 0.00 | 0.00 | 64 | 1007.2 |
| 20260902151520 | 61 | 119 | 0.0 | 1.0 | 0.00 | 0.00 | 0.00 | 63 | 1007.3 |
| 20260902150017 | 60 | 123 | 0.0 | 0.0 | 0.00 | 0.00 | 0.00 | 64 | 1007.4 |
| 20260902144526 | 60 | 122 | 0.0 | 0.0 | 0.00 | 0.00 | 0.00 | 65 | 1007.6 |
| 20260902143012 | 60 | 123 | 0.0 | 0.0 | 0.00 | 0.00 | 0.00 | 64 | 1007.7 |
| 20260902141530 | 60 | 123 | 0.0 | 0.0 | 0.00 | 0.00 | 0.00 | 64 | 1007.7 |
| 20260902140032 | 60 | 123 | 0.0 | 0.0 | 0.00 | 0.00 | 0.00 | 64 | 1007.8 |
| 20260902134533 | 60 | 123 | 0.0 | 1.0 | 0.00 | 0.00 | 0.00 | 63 | 1008.0 |
| 20260902133028 | 60 | 129 | 0.0 | 1.0 | 0.00 | 0.00 | 0.00 | 63 | 1008.1 |
| 20260902131522 | 60 | 129 | 0.0 | 1.0 | 0.00 | 0.00 | 0.00 | 63 | 1008.3 |
| 20260902130019 | 60 | 102 | 0.0 | 1.0 | 0.00 | 0.00 | 0.00 | 63 | 1008.6 |
| 20260902124521 | 60 | 125 | 0.0 | 1.0 | 0.00 | 0.00 | 0.00 | 63 | 1008.8 |
| 20260902123034 | 60 | 129 | 0.0 | 0.0 | 0.00 | 0.00 | 0.00 | 63 | 1008.9 |
| 20260902121530 | 60 | 129 | 0.0 | 2.0 | 0.00 | 0.00 | 0.00 | 63 | 1009.2 |
| 20260902120005 | 60 | 116 | 0.0 | 1.0 | 0.00 | 0.00 | 0.00 | 63 | 1009.3 |
| 20260902114504 | 60 | 120 | 0.0 | 0.0 | 0.00 | 0.00 | 0.00 | 64 | 1009.7 |
| 20260902113004 | 60 | 148 | 0.0 | 1.0 | 0.00 | 0.00 | 0.00 | 64 | 1010.1 |
| 20260902111522 | 60 | 123 | 0.0 | 2.0 | 0.00 | 0.00 | 0.00 | 63 | 1010.1 |
| 20260902110019 | 60 | 125 | 0.0 | 0.0 | 0.00 | 0.00 | 0.00 | 64 | 1010.3 |
| 20260902104530 | 60 | 110 | 0.0 | 2.0 | 0.00 | 0.00 | 0.00 | 64 | 1010.6 |
| 20260902103017 | 60 | 100 | 0.0 | 1.0 | 0.00 | 0.00 | 0.00 | 64 | 1010.7 |
| 20260902101525 | 60 | 165 | 0.0 | 1.0 | 0.00 | 0.00 | 0.00 | 64 | 1010.8 |
| 20260902100010 | 60 | 125 | 0.0 | 3.0 | 0.00 | 0.00 | 0.00 | 64 | 1010.8 |
| 20260902094503 | 60 | 127 | 0.0 | 0.0 | 0.00 | 0.00 | 0.00 | 63 | 1011.0 |
| 20260902093035 | 60 | 127 | 0.0 | 2.0 | 0.00 | 0.00 | 0.00 | 63 | 1011.0 |
| 20260902091526 | 60 | 118 | 0.0 | 0.0 | 0.00 | 0.00 | 0.00 | 63 | 1011.2 |
| 20260902090024 | 60 | 135 | 0.0 | 1.0 | 0.00 | 0.00 | 0.00 | 63 | 1011.4 |
| 20260902084520 | 59 | 106 | 0.0 | 2.0 | 0.00 | 0.00 | 0.00 | 64 | 1011.4 |
| 20260902083015 | 58 | 114 | 0.0 | 0.0 | 0.00 | 0.00 | 0.00 | 65 | 1011.6 |
| 20260902081513 | 58 | 114 | 0.0 | 0.0 | 0.00 | 0.00 | 0.00 | 67 | 1011.8 |
| 20260902080010 | 58 | 114 | 0.0 | 0.0 | 0.00 | 0.00 | 0.00 | 66 | 1011.8 |
| 20260902074535 | 59 | 114 | 0.0 | 0.0 | 0.00 | 0.00 | 0.00 | 66 | 1011.8 |
| 20260902073029 | 59 | 114 | 0.0 | 1.0 | 0.00 | 0.00 | 0.00 | 66 | 1011.8 |
| 20260902071529 | 59 | 112 | 0.0 | 1.0 | 0.00 | 0.00 | 0.00 | 66 | 1011.9 |
| 20260902070023 | 60 | 128 | 0.0 | 0.0 | 0.00 | 0.00 | 0.00 | 65 | 1012.0 |
| 20260902064522 | 61 | 128 | 0.0 | 0.0 | 0.00 | 0.00 | 0.00 | 64 | 1012.1 |
| 20260902063017 | 61 | 109 | 0.0 | 2.0 | 0.00 | 0.00 | 0.00 | 63 | 1012.2 |
| 20260902061544 | 62 | 96 | 0.0 | 1.0 | 0.00 | 0.00 | 0.00 | 63 | 1012.3 |
| 20260902060035 | 62 | 132 | 0.0 | 1.0 | 0.00 | 0.00 | 0.00 | 62 | 1012.3 |
| 20260902054535 | 62 | 179 | 0.0 | 1.0 | 0.00 | 0.00 | 0.00 | 62 | 1012.4 |
| 20260902053008 | 62 | 131 | 0.0 | 0.0 | 0.00 | 0.00 | 0.00 | 62 | 1012.6 |
| 20260902051504 | 62 | 132 | 0.0 | 0.0 | 0.00 | 0.00 | 0.00 | 62 | 1012.7 |
| 20260902050009 | 62 | 133 | 0.0 | 0.0 | 0.00 | 0.00 | 0.00 | 61 | 1012.7 |
| 20260902044504 | 62 | 138 | 0.0 | 1.0 | 0.00 | 0.00 | 0.00 | 61 | 1012.6 |
| 20260902043003 | 62 | 146 | 0.0 | 1.0 | 0.00 | 0.00 | 0.00 | 61 | 1012.5 |
| 20260902041516 | 63 | 124 | 0.0 | 1.0 | 0.00 | 0.00 | 0.00 | 60 | 1012.6 |
| 20260902040013 | 63 | 144 | 0.0 | 1.0 | 0.00 | 0.00 | 0.00 | 60 | 1012.6 |
| 20260902034512 | 63 | 151 | 0.0 | 1.0 | 0.00 | 0.00 | 0.00 | 59 | 1012.5 |
| 20260902033012 | 63 | 132 | 0.0 | 3.0 | 0.00 | 0.00 | 0.00 | 59 | 1012.5 |
| 20260902031504 | 63 | 195 | 0.0 | 1.0 | 0.00 | 0.00 | 0.00 | 59 | 1012.5 |
| 20260902030004 | 63 | 110 | 0.0 | 0.0 | 0.00 | 0.00 | 0.00 | 58 | 1012.3 |
| 20260902024504 | 64 | 160 | 0.0 | 0.0 | 0.00 | 0.00 | 0.00 | 58 | 1012.3 |
| 20260902023021 | 64 | 143 | 0.0 | 0.0 | 0.00 | 0.00 | 0.00 | 58 | 1012.4 |
| 20260902021524 | 64 | 133 | 0.0 | 1.0 | 0.00 | 0.00 | 0.00 | 58 | 1012.3 |
| 20260902020014 | 64 | 111 | 0.0 | 1.0 | 0.00 | 0.00 | 0.00 | 58 | 1012.3 |
| 20260902014512 | 64 | 114 | 0.0 | 1.0 | 0.00 | 0.00 | 0.00 | 58 | 1012.3 |
| 20260902013009 | 64 | 195 | 0.0 | 2.0 | 0.00 | 0.00 | 0.00 | 58 | 1012.3 |
| 20260902011504 | 65 | 231 | 0.0 | 2.0 | 0.00 | 0.00 | 0.00 | 57 | 1012.3 |
| 20260902010007 | 65 | 177 | 0.0 | 3.0 | 0.00 | 0.00 | 0.00 | 56 | 1011.9 |
| 20260902004526 | 65 | 299 | 0.0 | 4.0 | 0.00 | 0.00 | 0.00 | 56 | 1011.9 |
| 20260902003021 | 65 | 283 | 0.0 | 4.0 | 0.00 | 0.00 | 0.00 | 56 | 1011.8 |
| 20260902001516 | 65 | 309 | 1.0 | 4.0 | 0.00 | 0.00 | 0.00 | 56 | 1011.8 |
| 20260902000017 | 66 | 296 | 0.0 | 3.0 | 0.00 | 0.00 | 0.00 | 56 | 1011.7 |
| 20260901234510 | 67 | 283 | 0.0 | 2.0 | 0.00 | 0.00 | 0.00 | 51 | 1011.7 |
| 20260901233016 | 67 | 212 | 0.0 | 3.0 | 0.00 | 0.00 | 0.00 | 52 | 1011.7 |
| 20260901231506 | 67 | 86 | 0.0 | 1.0 | 0.00 | 0.00 | 0.00 | 51 | 1011.8 |
| 20260901230033 | 67 | 32 | 0.0 | 1.0 | 0.00 | 0.00 | 0.00 | 52 | 1011.9 |
| 20260901224535 | 67 | 148 | 0.0 | 0.0 | 0.00 | 0.00 | 0.00 | 53 | 1011.9 |
| 20260901223025 | 67 | 139 | 0.0 | 2.0 | 0.00 | 0.00 | 0.00 | 53 | 1011.9 |
| 20260901221520 | 67 | 188 | 0.0 | 1.0 | 0.00 | 0.00 | 0.00 | 52 | 1012.0 |
| 20260901220015 | 67 | 161 | 0.0 | 2.0 | 0.00 | 0.00 | 0.00 | 52 | 1011.9 |
| 20260901214511 | 68 | 119 | 0.0 | 2.0 | 0.00 | 0.00 | 0.00 | 52 | 1011.8 |
| 20260901213011 | 68 | 113 | 0.0 | 1.0 | 0.00 | 0.00 | 0.00 | 52 | 1011.8 |
| 20260901211534 | 68 | 200 | 0.0 | 2.0 | 0.00 | 0.00 | 0.00 | 52 | 1011.7 |
| 20260901210031 | 68 | 106 | 0.0 | 1.0 | 0.00 | 0.00 | 0.00 | 53 | 1011.7 |